Temp
63 64 64 64 64 64 64 64 64 64 64 64 64 64 65 64 65 71 63 66 70 71 69 69 70 70 71 66 65 66 66 63 61 58 60 58 58 60 61 60 61 63 62 60 62
63 63 63 63 63 63 63 64 64 64 64 64 64 65 64 64 69 67 69 71 70 70 67 68 68 69 69 64 64 66 64 62 57 58 58 58 59 60 58 59 59 59 59 58 58
63 63 63 63 63 63 63 63 63 64 64 64 64 64 64 66 69 67 70 69 69 67 67 67 68 69 65 64 60 59 60 55 53 55 57 58 56 59 58 56 64 62 62 58 58
63 63 62 62 62 62 63 63 63 64 64 64 64 64 64 68 63 69 68 67 67 67 67 68 69 66 63 61 58 58 53 53 53 53 55 55 56 56 58 62 61 64 66 59 58
62 62 62 62 62 62 62 62 63 64 63 63 64 64 66 69 65 71 66 66 68 66 63 65 67 65 62 59 58 57 52 52 52 52 53 53 54 57 56 64 60 59 59 59 60
62 62 61 61 61 61 62 62 63 63 63 63 64 64 70 64 70 70 65 67 66 67 64 66 64 65 60 56 58 54 53 52 52 52 53 51 54 51 59 61 58 57 58 61 60
62 61 61 61 61 61 62 63 63 63 62 63 64 70 71 64 70 70 65 63 63 64 64 62 64 66 62 56 55 55 53 52 53 52 52 50 51 49 60 55 56 57 59 59 59
61 61 60 60 61 61 61 62 61 61 62 64 65 72 65 68 71 68 69 66 67 67 64 62 65 60 59 58 56 55 55 55 51 51 51 52 55 56 56 56 56 57 58 57 58
60 60 60 60 60 60 60 61 62 63 65 66 70 71 64 68 66 65 65 62 63 65 64 64 63 58 57 58 57 58 54 53 53 48 48 51 55 56 55 57 57 58 58 57 59
60 59 59 59 60 60 60 61 63 66 69 69 69 69 67 62 62 62 64 61 62 63 63 63 62 60 58 58 50 50 50 52 50 49 48 49 51 59 58 55 58 60 60 58 58
59 59 59 59 59 59 64 69 70 69 65 59 58 58 60 63 61 64 60 61 64 64 58 56 58 51 48 47 48 46 45 46 52 46 45 50 50 55 59 57 55 59 60 59 58
59 58 59 59 60 59 66 64 56 60 59 58 58 59 59 58 60 64 64 63 62 56 55 58 50 47 46 45 45 46 44 46 50 45 44 48 45 53 53 52 54 55 56 55 57
58 58 58 58 60 63 60 55 57 57 64 58 58 58 58 60 54 56 59 56 55 53 51 54 47 45 44 45 45 48 43 42 39 44 44 40 48 49 49 51 50 51 55 56 56
58 58 58 59 64 60 58 56 57 56 61 57 59 59 60 58 55 56 55 55 53 50 48 48 46 44 45 44 43 40 42 39 38 37 36 42 37 52 50 49 48 50 51 53 56
57 58 58 60 62 61 57 56 57 59 44 56 57 63 58 57 52 56 54 57 51 48 48 46 44 45 45 43 42 44 40 39 36 33 30 37 32 51 48 47 47 48 52 53 55
57 57 58 61 61 55 55 56 59 58 40 54 54 52 56 54 53 53 55 57 52 49 49 43 43 42 42 41 41 42 40 38 36 35 31 31 35 50 50 47 48 48 50 51 52
57 57 58 58 59 55 55 61 57 50 55 51 50 50 48 49 51 49 48 42 47 46 47 44 43 41 40 41 42 41 40 36 35 34 37 33 34 44 48 48 50 49 49 51 52
56 56 54 55 57 55 59 64 49 51 51 48 47 49 50 47 48 48 48 49 40 44 45 42 43 40 39 35 33 37 33 35 28 34 38 33 35 47 46 48 49 51 51 50 51
56 60 60 57 55 57 64 52 53 51 48 48 49 49 49 47 46 48 45 46 43 39 41 42 44 37 36 37 35 36 37 36 28 22 29 41 45 47 45 45 47 48 48 49 51
62 61 59 55 55 60 60 49 49 46 46 47 48 47 48 48 47 47 46 41 39 36 36 41 37 38 34 36 35 34 35 32 31 27 28 40 34 44 45 45 47 47 48 50 51
60 62 60 54 57 61 51 48 46 46 46 46 48 45 44 44 44 46 44 41 42 37 39 36 37 38 36 35 34 33 31 30 29 32 30 31 38 42 41 43 42 49 50 50 51
56 59 58 55 58 46 48 46 45 45 46 45 45 42 44 44 43 44 44 44 41 41 37 35 35 34 42 25 23 29 33 34 34 30 30 29 34 40 36 34 33 36 39 47 48
53 54 58 57 51 47 44 45 45 44 45 45 44 44 43 44 40 44 44 40 41 42 36 34 36 33 36 27 26 29 30 31 30 32 30 29 35 39 35 34 33 34 38 39 44
53 52 56 51 45 44 44 45 45 44 45 45 44 45 42 42 44 40 43 40 40 41 41 41 36 35 33 38 40 29 28 28 30 30 34 34 36 39 38 36 36 37 36 36 35
47 42 41 43 47 45 44 41 43 44 43 44 42 43 40 38 41 40 42 41 39 40 41 36 30 38 40 43 39 35 34 33 26 33 30 35 35 38 38 34 35 32 33 34 34
49 46 43 41 42 44 42 43 42 44 42 42 41 44 43 39 45 43 45 45 44 37 35 34 29 31 29 36 33 30 33 33 33 33 32 32 32 38 35 31 32 33 32 32 32
48 47 47 41 42 43 45 44 43 45 47 47 46 44 41 45 50 51 49 47 46 36 30 27 27 27 29 32 30 27 30 33 31 27 33 28 34 30 32 33 33 33 32 32 32
MSLP
1020.43 1020.01 1019.76 1019.65 1019.34 1019.07 1018.88 1018.76 1018.59 1018.33 1017.96 1017.62 1017.42 1017.19 1017.07 1016.96 1016.70 1016.34 1016.68 1017.29 1016.59 1016.10 1015.93 1015.51 1015.08 1014.79 1014.51 1014.66 1014.85 1014.40 1013.51 1013.07 1013.54 1014.38 1014.94 1016.51 1016.85 1017.58 1017.97 1017.79 1018.16 1018.42 1018.76 1019.92 1020.57
1020.15 1019.87 1019.67 1019.54 1019.32 1019.07 1018.84 1018.67 1018.44 1018.15 1017.88 1017.58 1017.36 1017.15 1017.08 1017.04 1016.76 1016.65 1017.42 1016.92 1016.44 1015.98 1015.73 1015.13 1014.74 1014.59 1014.42 1014.83 1014.95 1014.40 1014.28 1014.46 1015.51 1015.79 1016.03 1016.79 1017.20 1017.39 1017.75 1017.67 1017.87 1018.40 1019.37 1020.32 1020.94
1020.04 1019.78 1019.61 1019.46 1019.25 1019.01 1018.76 1018.51 1018.25 1018.02 1017.73 1017.52 1017.31 1017.14 1017.06 1017.03 1016.72 1016.89 1017.09 1016.69 1016.23 1015.98 1015.71 1015.32 1014.95 1014.54 1014.58 1015.12 1015.68 1015.59 1015.60 1016.37 1016.94 1017.30 1017.43 1017.45 1017.71 1017.80 1017.52 1017.20 1016.83 1017.32 1018.45 1019.89 1020.56
1019.95 1019.70 1019.54 1019.42 1019.13 1018.86 1018.58 1018.30 1018.03 1017.83 1017.61 1017.39 1017.25 1017.14 1017.07 1016.90 1017.26 1017.11 1017.04 1016.69 1016.29 1016.00 1015.59 1015.20 1014.75 1014.39 1014.81 1015.40 1016.33 1016.47 1017.30 1017.55 1017.99 1018.34 1018.27 1018.13 1018.14 1017.71 1017.47 1016.77 1017.36 1017.61 1017.91 1019.38 1019.98
1019.91 1019.68 1019.54 1019.28 1018.90 1018.58 1018.34 1018.08 1017.84 1017.59 1017.41 1017.28 1017.22 1017.06 1017.06 1016.65 1017.30 1017.26 1017.15 1016.73 1016.23 1015.98 1015.69 1015.23 1014.77 1014.82 1015.23 1016.05 1016.59 1016.78 1017.72 1018.22 1018.69 1018.86 1018.84 1018.80 1018.17 1017.69 1016.98 1016.95 1017.72 1018.11 1018.56 1018.97 1019.55
1019.83 1019.61 1019.39 1019.05 1018.66 1018.36 1018.11 1017.86 1017.61 1017.40 1017.29 1017.17 1017.05 1016.90 1016.71 1016.95 1017.63 1017.60 1017.31 1016.74 1016.58 1016.12 1016.04 1015.65 1015.46 1015.42 1015.82 1016.65 1016.94 1017.75 1017.99 1018.47 1018.89 1019.00 1018.98 1018.80 1018.14 1018.22 1016.66 1016.87 1017.62 1018.07 1018.33 1018.76 1019.34
1019.67 1019.45 1019.16 1018.78 1018.48 1018.19 1017.92 1017.71 1017.49 1017.38 1017.27 1017.13 1016.97 1016.62 1016.56 1017.88 1017.71 1017.62 1017.43 1017.32 1017.16 1016.73 1016.38 1016.64 1016.33 1015.88 1016.36 1016.98 1017.89 1017.81 1017.77 1018.15 1018.55 1018.91 1018.80 1018.99 1017.64 1017.01 1016.54 1017.27 1017.40 1017.80 1018.19 1018.74 1019.26
1019.58 1019.23 1018.87 1018.55 1018.34 1018.02 1017.77 1017.58 1017.40 1017.31 1017.16 1017.02 1016.89 1016.49 1017.16 1017.85 1017.78 1017.67 1017.34 1017.22 1017.18 1017.02 1016.92 1017.05 1016.75 1016.67 1017.14 1017.85 1017.66 1017.30 1017.36 1017.37 1018.23 1018.60 1018.84 1018.70 1016.08 1015.85 1016.48 1016.71 1016.91 1017.34 1017.88 1018.52 1019.00
1019.47 1019.13 1018.73 1018.43 1018.18 1017.92 1017.65 1017.47 1017.27 1017.15 1017.02 1016.85 1016.79 1016.49 1017.47 1017.90 1017.91 1018.13 1018.07 1017.62 1017.32 1017.16 1017.11 1017.07 1016.84 1017.34 1017.86 1017.27 1016.99 1016.83 1016.70 1017.18 1017.75 1018.73 1018.72 1018.19 1015.83 1015.75 1016.35 1016.33 1016.36 1016.80 1017.32 1017.97 1018.46
1019.31 1018.98 1018.67 1018.35 1018.07 1017.74 1017.43 1017.28 1017.14 1016.95 1016.89 1016.77 1016.84 1017.24 1017.68 1018.38 1018.53 1018.36 1018.20 1017.95 1017.29 1017.02 1016.87 1016.75 1016.96 1017.39 1017.86 1017.56 1017.66 1017.63 1017.49 1017.47 1017.90 1018.52 1018.43 1017.53 1015.76 1015.10 1015.67 1016.01 1015.81 1016.07 1016.59 1017.22 1017.84
1019.29 1019.00 1018.66 1018.32 1017.93 1017.60 1017.13 1017.21 1017.69 1017.69 1017.77 1018.72 1018.85 1018.69 1018.77 1018.79 1018.83 1018.35 1018.40 1017.79 1017.22 1016.94 1017.09 1017.60 1017.53 1018.76 1019.70 1019.86 1019.66 1019.35 1018.91 1018.46 1018.08 1019.14 1018.81 1016.90 1015.49 1014.42 1014.67 1015.06 1015.26 1015.35 1015.78 1016.49 1017.22
1019.35 1018.97 1018.57 1018.24 1017.86 1017.64 1017.27 1017.90 1019.33 1019.48 1019.54 1019.47 1019.20 1019.17 1019.33 1019.53 1018.87 1018.48 1018.33 1017.99 1017.43 1017.66 1018.01 1018.15 1019.14 1020.67 1021.17 1020.96 1020.54 1019.98 1019.59 1019.05 1018.66 1019.40 1019.31 1016.76 1014.82 1013.71 1013.87 1014.36 1014.76 1014.94 1015.39 1016.03 1016.77
1019.36 1018.83 1018.36 1018.07 1017.74 1017.78 1018.52 1019.75 1020.04 1019.79 1019.12 1019.56 1019.41 1019.38 1019.71 1019.66 1019.81 1019.69 1019.29 1019.12 1018.77 1018.63 1019.01 1019.14 1020.98 1021.64 1021.76 1021.48 1021.08 1020.39 1020.37 1020.25 1020.46 1019.79 1019.19 1018.11 1014.33 1013.50 1014.15 1014.65 1015.20 1015.42 1015.41 1015.95 1016.35
1019.40 1018.83 1018.19 1017.77 1017.92 1018.81 1019.46 1020.13 1020.08 1019.95 1019.28 1019.62 1019.41 1019.75 1019.80 1019.69 1020.12 1020.44 1020.40 1020.17 1019.67 1019.85 1020.19 1020.74 1021.75 1022.07 1022.17 1022.08 1022.16 1021.43 1021.48 1021.53 1021.22 1020.80 1019.74 1018.88 1015.72 1013.24 1013.82 1014.42 1014.98 1015.32 1015.71 1016.02 1016.40
1019.42 1018.97 1018.38 1017.47 1018.33 1019.28 1020.09 1020.10 1019.97 1019.68 1019.38 1019.92 1019.62 1019.77 1019.76 1019.89 1020.73 1020.43 1020.83 1019.83 1020.22 1020.63 1021.01 1021.69 1022.24 1022.57 1022.65 1022.84 1022.89 1022.22 1022.27 1021.98 1021.64 1021.12 1020.56 1018.91 1017.84 1013.51 1014.00 1014.10 1014.71 1015.43 1015.86 1016.38 1016.87
1019.54 1019.09 1018.45 1018.44 1018.89 1020.14 1020.19 1020.00 1019.64 1019.31 1019.17 1019.62 1019.75 1019.97 1019.82 1020.14 1020.53 1020.51 1020.41 1020.36 1021.08 1020.95 1021.16 1022.19 1023.28 1023.55 1023.73 1023.58 1023.44 1023.04 1022.36 1021.87 1021.56 1020.80 1019.89 1018.63 1017.78 1013.57 1013.66 1014.26 1014.80 1015.69 1016.25 1016.75 1017.24
1019.70 1019.33 1018.66 1019.33 1020.12 1020.28 1020.13 1019.43 1019.19 1018.92 1019.54 1019.92 1020.12 1020.33 1020.50 1020.47 1020.52 1020.75 1020.80 1021.19 1021.73 1021.60 1021.51 1022.27 1023.06 1023.97 1024.46 1024.03 1023.70 1023.37 1022.56 1021.69 1021.03 1020.13 1018.94 1018.49 1017.59 1014.13 1014.40 1014.96 1015.17 1015.78 1016.48 1017.12 1017.69
1019.66 1019.48 1019.88 1020.09 1020.25 1020.06 1019.59 1018.89 1019.02 1019.22 1019.61 1020.35 1020.57 1020.52 1020.42 1020.91 1020.99 1021.07 1021.25 1021.90 1022.54 1022.47 1022.47 1022.86 1023.20 1024.13 1024.94 1025.16 1025.03 1024.43 1024.14 1023.43 1022.32 1020.84 1019.08 1018.22 1016.15 1014.43 1015.33 1015.80 1016.04 1016.46 1017.03 1017.62 1017.95
1019.65 1019.67 1019.73 1019.98 1020.13 1019.80 1019.22 1019.23 1019.45 1020.04 1020.62 1020.75 1020.70 1020.59 1020.63 1020.98 1021.28 1021.03 1021.54 1022.07 1022.87 1023.39 1023.65 1023.62 1023.83 1024.79 1025.40 1025.79 1026.06 1025.40 1024.88 1024.53 1023.38 1022.81 1020.62 1016.84 1015.25 1015.15 1015.60 1016.05 1016.45 1017.00 1017.46 1017.67 1017.91
1019.55 1019.77 1020.03 1020.23 1020.06 1019.52 1019.12 1020.03 1020.80 1021.33 1021.57 1021.58 1021.19 1021.11 1020.79 1020.91 1021.14 1021.29 1021.59 1022.83 1023.76 1024.45 1024.64 1024.28 1024.51 1024.65 1025.91 1026.43 1026.68 1026.12 1026.05 1025.25 1024.08 1022.18 1019.71 1016.65 1016.23 1015.18 1015.73 1016.33 1016.94 1017.21 1017.47 1017.76 1018.04
1019.65 1019.75 1020.13 1020.21 1020.00 1019.48 1020.11 1021.07 1021.74 1022.33 1022.49 1022.44 1021.91 1021.59 1021.57 1021.47 1021.55 1021.73 1022.18 1023.35 1023.92 1024.86 1025.05 1025.00 1025.26 1025.20 1025.80 1026.27 1026.39 1026.81 1026.27 1025.75 1024.95 1023.03 1020.98 1018.06 1016.07 1015.91 1016.71 1017.20 1017.35 1017.37 1017.82 1018.06 1018.16
1019.97 1019.99 1020.21 1020.22 1020.38 1021.39 1021.52 1022.18 1022.64 1022.86 1023.11 1023.07 1022.85 1022.48 1022.15 1022.01 1021.90 1022.07 1022.49 1023.33 1024.25 1024.64 1025.16 1025.48 1025.24 1024.73 1024.54 1026.30 1026.90 1026.37 1025.79 1025.00 1024.19 1022.93 1021.56 1019.81 1016.56 1017.05 1017.76 1018.34 1018.62 1018.62 1018.75 1018.43 1018.32
1020.69 1020.75 1020.19 1020.10 1021.08 1022.05 1022.61 1022.66 1022.95 1023.11 1023.12 1023.17 1023.00 1022.86 1022.89 1022.49 1022.44 1022.30 1022.85 1023.96 1024.56 1024.87 1025.11 1025.41 1025.30 1024.57 1023.97 1026.15 1026.48 1025.85 1025.39 1024.56 1023.83 1022.90 1020.64 1019.63 1016.76 1016.99 1018.01 1018.57 1018.98 1018.98 1018.99 1018.66 1018.64
1021.49 1021.69 1021.33 1021.69 1023.23 1022.76 1022.93 1022.96 1023.09 1023.33 1023.29 1023.26 1023.16 1023.10 1023.03 1022.76 1022.71 1022.69 1022.98 1023.94 1024.75 1025.05 1025.24 1025.19 1024.79 1024.07 1023.03 1022.37 1022.82 1024.26 1024.28 1024.04 1023.57 1021.99 1018.88 1018.09 1016.46 1017.35 1018.03 1018.80 1019.11 1019.38 1019.28 1019.10 1019.36
1022.79 1024.21 1024.71 1023.69 1023.56 1023.58 1023.49 1023.37 1023.09 1023.20 1023.43 1023.41 1023.34 1023.15 1023.10 1023.01 1022.62 1022.49 1022.93 1023.75 1024.58 1024.87 1025.22 1025.36 1024.55 1023.26 1021.95 1021.40 1021.77 1022.20 1022.53 1022.55 1022.13 1020.11 1019.92 1016.74 1017.78 1016.90 1018.11 1018.99 1019.32 1019.72 1019.67 1019.69 1019.94
1023.92 1024.60 1025.07 1024.76 1024.50 1023.90 1023.74 1023.38 1023.27 1023.10 1023.30 1023.25 1023.32 1023.04 1023.24 1023.12 1022.30 1022.00 1022.26 1022.99 1023.49 1024.78 1025.31 1025.66 1024.44 1023.41 1021.93 1021.32 1021.24 1021.28 1021.15 1020.54 1020.27 1019.82 1019.56 1018.80 1018.48 1018.21 1018.44 1019.26 1019.91 1020.32 1020.58 1020.60 1020.41
1024.73 1024.99 1024.71 1025.00 1024.49 1024.08 1023.49 1023.25 1023.12 1023.19 1022.65 1022.71 1022.85 1023.08 1023.04 1022.47 1021.94 1021.66 1021.97 1022.22 1022.36 1023.53 1025.09 1025.66 1025.03 1023.77 1021.05 1021.05 1020.74 1020.17 1019.00 1019.08 1019.22 1019.38 1019.17 1018.99 1018.10 1018.72 1019.31 1019.66 1019.98 1020.54 1021.01 1021.11 1020.91
Wind_Speed
8 8 9 10 10 10 10 10 11 11 11 11 11 10 9 9 3 3 8 10 11 17 12 6 2 2 2 4 4 1 4 4 3 6 4 8 8 4 0 3 3 5 1 5 11
9 9 9 10 10 10 10 10 11 11 11 11 10 9 8 6 0 9 3 17 14 12 4 1 2 1 4 3 3 2 3 0 3 2 1 9 5 6 5 6 6 6 5 7 12
9 9 9 9 9 10 10 10 11 11 11 11 10 9 6 2 2 6 15 17 13 5 2 1 1 1 3 3 6 3 2 2 2 2 1 7 4 3 5 8 9 12 13 11 13
9 9 9 9 9 9 10 10 11 11 11 10 9 9 2 2 2 4 18 15 9 2 1 1 1 2 3 3 3 1 3 2 3 2 2 4 1 4 11 0 3 5 10 14 15
9 9 9 9 9 9 10 10 10 10 10 10 9 8 3 3 5 8 17 10 2 2 5 1 3 2 3 4 2 3 3 2 2 2 1 1 6 7 11 11 3 4 10 14 13
9 9 9 10 9 9 10 10 10 9 9 10 8 6 3 4 3 8 11 5 9 6 7 6 4 4 7 4 3 3 4 3 1 1 2 4 3 2 0 5 8 8 12 13 13
11 10 10 10 11 10 11 11 10 10 10 9 7 2 6 5 2 9 8 4 4 4 4 4 2 2 2 4 4 5 2 2 2 3 1 3 8 11 6 4 12 10 11 12 11
12 11 11 11 12 11 11 11 10 9 8 6 5 2 4 1 1 8 9 1 5 5 4 2 5 9 5 5 3 1 2 3 3 5 2 4 8 3 6 8 11 12 12 12 12
12 12 12 12 12 11 10 10 7 6 4 3 1 2 3 2 3 5 7 5 5 1 5 3 3 5 2 1 3 1 5 5 2 2 4 5 8 4 5 8 11 12 13 12 12
13 13 13 12 11 10 9 3 2 1 2 1 2 2 3 5 5 5 4 4 3 2 2 4 4 3 4 4 2 5 6 5 9 3 4 13 21 17 11 10 12 13 14 14 13
14 13 13 12 10 8 1 2 3 2 10 5 2 1 3 8 2 8 5 3 0 5 4 5 5 5 4 4 2 2 6 12 10 2 8 10 18 22 16 15 18 19 18 16 16
13 12 12 10 7 4 2 4 3 3 6 1 0 1 1 3 3 11 11 2 5 5 4 2 4 1 1 1 3 4 8 7 9 0 8 12 24 23 12 11 12 15 16 17 19
13 12 11 9 1 4 7 4 2 2 2 2 2 2 3 4 3 10 10 2 6 4 8 4 4 0 2 2 6 4 5 4 7 13 5 14 11 2 4 3 1 6 10 14 18
14 14 10 6 2 1 4 1 2 2 1 3 2 3 1 2 3 3 4 2 4 3 3 5 1 1 2 2 3 6 1 4 11 9 6 6 8 2 2 2 1 3 9 13 15
14 14 7 10 6 3 1 3 2 3 2 3 2 2 2 4 4 5 2 1 3 3 2 2 1 1 3 2 1 5 4 9 3 3 4 2 3 2 1 4 2 2 9 10 11
13 13 4 3 3 2 2 2 3 1 5 2 3 5 2 5 4 6 3 6 2 2 4 3 1 2 4 3 3 8 5 3 2 3 3 2 3 3 0 2 3 4 7 9 10
10 9 6 2 3 3 2 3 1 3 1 1 2 4 1 4 3 8 5 6 2 1 1 2 2 2 2 4 3 3 5 5 3 2 3 4 6 7 2 3 4 8 8 8 9
6 4 5 3 2 3 2 2 3 1 2 1 1 1 1 4 1 4 0 1 2 1 1 3 2 1 4 3 2 4 1 2 7 5 7 3 6 2 4 5 2 6 8 8 8
1 1 2 5 3 2 2 0 2 2 1 1 2 1 1 2 2 2 0 3 1 1 1 2 3 3 3 1 3 3 1 2 1 2 4 4 6 6 1 3 7 8 8 8 8
1 1 2 7 3 2 1 2 1 1 2 1 2 1 2 1 3 1 1 2 4 0 2 2 6 1 3 1 4 1 3 2 1 4 6 5 5 10 2 5 8 11 11 9 7
1 1 2 4 2 2 1 2 2 1 0 1 1 2 1 2 2 2 1 2 1 4 0 2 1 3 2 5 2 4 2 1 3 3 4 7 4 2 3 4 11 12 10 9 9
1 1 3 2 1 2 2 1 1 2 1 1 1 1 3 2 3 4 3 2 5 7 4 2 1 5 8 3 1 2 2 4 4 4 5 4 10 2 2 3 3 6 7 12 11
2 2 2 3 2 2 1 0 1 3 3 3 2 3 2 3 3 3 2 2 5 5 4 6 2 7 4 3 2 5 5 3 0 0 11 9 7 2 2 3 6 7 9 10 11
2 2 4 6 2 3 1 0 1 1 2 2 1 2 2 4 5 2 3 3 6 4 3 6 3 10 13 15 3 4 7 8 9 7 15 17 23 17 7 7 6 6 8 8 4
5 3 1 4 4 3 1 1 2 2 1 2 2 6 4 2 3 5 4 2 5 6 5 4 8 15 20 21 14 13 15 15 17 22 17 26 19 21 13 5 9 4 5 5 4
2 1 1 1 2 3 1 1 1 2 2 3 4 2 6 5 7 9 6 7 11 7 7 3 5 4 6 17 15 16 18 21 22 23 20 23 27 19 9 2 2 4 2 4 4
1 1 2 1 1 2 1 1 3 2 4 4 5 3 7 14 14 14 10 9 8 9 9 6 4 3 9 2 6 9 16 17 5 3 6 11 10 3 1 5 4 4 2 3 2
Wind_Direction
334 338 338 333 335 337 336 334 331 333 338 339 340 345 341 340 316 45 40 325 317 317 324 286 229 85 88 80 29 310 228 235 204 178 129 149 191 158 62 184 202 182 234 87 140
344 340 336 331 331 331 330 327 329 331 331 331 337 336 330 333 161 54 351 335 325 324 291 340 135 139 81 64 33 292 249 24 25 36 169 169 203 169 206 196 214 197 158 132 156
343 339 332 327 324 325 325 326 329 327 327 326 332 326 319 263 218 11 343 341 337 342 182 77 117 77 82 37 14 24 339 100 87 35 220 164 212 193 224 222 220 212 182 163 170
342 339 330 324 324 322 322 322 324 321 322 326 327 322 293 217 343 6 342 338 343 326 187 127 156 95 72 76 28 146 67 2 113 38 153 175 132 233 226 272 52 208 179 165 180
343 339 331 327 324 322 320 321 320 321 323 322 321 319 228 80 24 345 337 339 334 8 45 70 69 115 97 90 110 79 124 93 104 74 309 266 242 268 249 237 193 150 173 182 181
345 341 334 330 327 323 323 322 319 319 317 314 318 317 248 68 357 342 340 348 21 24 35 19 70 100 98 67 14 96 118 115 155 40 281 270 247 278 204 235 195 184 187 182 182
347 343 338 335 328 323 322 318 314 311 308 307 317 285 61 78 5 356 3 16 358 8 66 32 65 36 131 112 124 138 173 181 178 330 255 328 241 232 242 176 195 193 182 181 184
347 343 341 335 325 321 315 310 302 299 293 291 305 251 80 61 346 9 356 43 26 30 73 97 62 90 30 120 135 247 236 279 100 348 139 292 273 146 163 176 187 187 182 186 190
348 343 340 332 326 317 310 302 289 301 296 304 228 288 70 145 10 352 14 353 320 55 59 88 66 66 115 262 174 57 322 310 269 72 300 242 285 115 184 199 190 192 189 190 188
349 344 338 331 322 320 312 267 322 222 332 150 114 191 58 340 317 336 354 335 20 291 171 40 56 73 37 341 8 341 319 297 281 41 282 272 266 265 211 212 216 200 198 198 196
346 340 336 326 321 334 289 173 202 151 42 45 41 356 333 322 254 15 351 316 322 61 27 28 55 40 35 24 27 314 283 289 289 24 307 274 279 273 260 236 229 228 217 216 203
343 338 335 329 333 9 41 72 46 33 98 41 149 341 324 336 332 10 355 16 30 48 332 164 63 58 309 296 291 279 295 292 281 278 314 303 285 283 271 238 230 226 219 211 199
343 341 335 331 352 46 66 73 347 286 69 36 44 19 342 344 58 344 359 9 41 59 23 56 74 173 240 246 326 270 258 296 288 319 259 300 270 178 144 169 226 232 224 200 192
343 345 345 320 127 106 61 347 308 289 193 33 22 40 325 8 64 343 17 14 56 78 50 65 106 249 241 270 317 296 65 298 305 332 313 2 291 227 130 197 296 193 181 181 179
345 347 9 33 121 67 73 302 284 235 288 14 14 337 359 32 322 38 4 295 73 94 229 76 327 311 249 4 283 328 323 302 289 270 303 140 256 266 176 222 187 151 181 173 175
345 351 346 30 65 60 298 271 222 184 259 53 331 344 332 32 27 309 19 52 78 125 55 83 80 340 345 294 246 316 289 237 207 234 242 106 323 275 333 331 162 151 167 170 169
341 2 42 355 55 334 273 223 182 207 92 28 356 12 39 345 16 14 19 21 8 307 358 165 156 114 336 290 197 313 306 310 297 267 339 150 267 278 0 15 300 171 159 153 153
347 11 41 49 336 291 235 194 212 103 205 79 247 265 291 350 61 355 14 174 141 292 94 325 244 20 9 51 333 22 26 309 300 311 327 141 248 20 30 340 275 155 144 144 156
11 42 60 11 333 256 232 181 275 156 79 283 204 246 178 193 279 298 326 223 116 256 218 279 252 122 49 93 336 85 259 25 228 165 259 283 275 177 342 99 151 159 170 175 179
80 58 38 335 323 257 113 212 179 115 130 180 244 240 262 232 287 317 192 138 159 300 309 132 289 57 106 158 77 351 87 223 152 290 277 244 279 272 348 187 187 198 198 192 189
62 169 50 346 261 55 150 162 163 129 177 253 282 244 252 298 262 264 302 149 186 148 62 129 279 123 186 196 159 149 190 130 299 263 284 301 237 173 212 229 211 215 206 208 214
56 258 35 286 27 30 84 61 55 144 128 210 248 182 227 182 252 245 253 239 164 163 155 123 186 261 284 93 18 307 251 209 229 210 235 272 273 88 310 277 235 213 221 228 228
45 323 59 285 70 68 142 111 249 181 211 192 221 233 205 233 264 228 239 100 168 181 174 182 180 305 226 149 171 220 187 233 70 302 231 267 256 171 197 201 228 229 237 243 243
38 12 21 52 34 81 17 322 240 198 242 204 203 169 177 231 221 285 241 171 193 222 176 161 231 217 256 273 256 195 210 217 210 233 268 243 274 267 269 245 263 255 255 256 241
15 67 75 4 39 31 300 257 269 240 235 227 213 236 188 236 222 226 225 184 191 210 195 210 238 244 251 271 280 266 257 232 213 240 251 275 282 280 292 302 305 281 288 304 324
63 135 150 80 293 309 351 219 263 318 202 196 229 71 193 232 241 274 261 284 264 171 186 186 263 266 255 254 256 262 261 252 248 253 254 267 274 288 307 336 278 297 353 355 345
80 102 144 109 78 283 224 224 216 175 228 239 215 244 249 248 259 269 280 259 250 168 192 181 228 219 267 42 291 252 236 241 233 231 225 235 249 50 300 310 296 331 22 310 226